• In Latvia
  • List of Countries
  • For 7 days
  • Water Temperature
  • Satellite Maps
  • Weather Map
  • Weather Widgets
  • user-avatar
    Login

    Hourly Weather Salta

    Today, 28 June, Wednesday

    Time Temperature Precipitation Wind Pressure Humidity
    00:00 +10°C° 0 mm 2 mps 652 mmHg 67%
    01:00 +9°C° 0 mm 2 mps 652 mmHg 66%
    02:00 +9°C° 0 mm 2 mps 652 mmHg 65%
    03:00 +9°C° 0 mm 2 mps 652 mmHg 65%
    04:00 +9°C° 0 mm 2 mps 652 mmHg 64%
    05:00 +9°C° 0 mm 2 mps 652 mmHg 63%
    06:00 +10°C° 0 mm 2 mps 652 mmHg 61%
    07:00 +10°C° 0 mm 2 mps 653 mmHg 59%
    08:00 +13°C° 0 mm 2 mps 654 mmHg 54%
    09:00 +14°C° 0 mm 2 mps 654 mmHg 52%
    10:00 +16°C° 0 mm 3 mps 654 mmHg 49%
    11:00 +18°C° 0 mm 3 mps 654 mmHg 47%
    12:00 +18°C° 0 mm 3 mps 653 mmHg 47%
    13:00 +19°C° 0 mm 3 mps 653 mmHg 47%
    14:00 +19°C° 0 mm 3 mps 653 mmHg 47%
    15:00 +18°C° 0 mm 3 mps 652 mmHg 51%
    16:00 +17°C° 0 mm 2 mps 652 mmHg 55%
    17:00 +16°C° 0 mm 2 mps 651 mmHg 59%
    18:00 +15°C° 0 mm 2 mps 652 mmHg 63%
    19:00 +14°C° 0 mm 2 mps 652 mmHg 68%
    20:00 +12°C° 0 mm 2 mps 652 mmHg 72%
    21:00 +12°C° 0 mm 2 mps 652 mmHg 71%
    22:00 +12°C° 0 mm 2 mps 652 mmHg 70%
    23:00 +10°C° 0 mm 2 mps 652 mmHg 70%

    Tomorrow, 29 June, Thursday

    Time Temperature Precipitation Wind Pressure Humidity
    00:00 +10°C° 0 mm 2 mps 652 mmHg 70%
    01:00 +10°C° 0 mm 2 mps 652 mmHg 69%
    02:00 +10°C° 0 mm 2 mps 651 mmHg 69%
    03:00 +10°C° 0 mm 2 mps 651 mmHg 68%
    04:00 +11°C° 0 mm 1 mps 651 mmHg 68%
    05:00 +11°C° 0 mm 1 mps 651 mmHg 67%
    06:00 +11°C° 0 mm 1 mps 651 mmHg 64%
    07:00 +12°C° 0 mm 1 mps 652 mmHg 61%
    08:00 +12°C° 0 mm 1 mps 652 mmHg 59%
    09:00 +14°C° 0 mm 2 mps 653 mmHg 54%
    10:00 +17°C° 0 mm 2 mps 654 mmHg 50%
    11:00 +19°C° 0 mm 2 mps 654 mmHg 46%
    12:00 +19°C° 0 mm 2 mps 654 mmHg 47%
    13:00 +19°C° 0 mm 2 mps 653 mmHg 47%
    14:00 +19°C° 0 mm 2 mps 653 mmHg 47%
    15:00 +19°C° 0 mm 2 mps 653 mmHg 50%
    16:00 +18°C° 0 mm 2 mps 653 mmHg 53%
    17:00 +18°C° 0 mm 1 mps 653 mmHg 55%
    18:00 +15°C° 0 mm 1 mps 653 mmHg 62%
    19:00 +13°C° 0 mm 1 mps 653 mmHg 68%
    20:00 +11°C° 0 mm 1 mps 653 mmHg 75%
    21:00 +11°C° 0 mm 1 mps 653 mmHg 73%
    22:00 +10°C° 0 mm 1 mps 653 mmHg 72%
    23:00 +9°C° 0 mm 0 mps 653 mmHg 71%

    Day after tomorrow, 30 June, Friday

    Time Temperature Precipitation Wind Pressure Humidity
    00:00 +9°C° 0 mm 1 mps 652 mmHg 70%
    01:00 +9°C° 0 mm 1 mps 652 mmHg 69%
    02:00 +9°C° 0 mm 1 mps 652 mmHg 67%
    03:00 +9°C° 0 mm 1 mps 652 mmHg 67%
    04:00 +8°C° 0 mm 1 mps 652 mmHg 68%
    05:00 +8°C° 0 mm 1 mps 651 mmHg 68%
    06:00 +9°C° 0 mm 1 mps 652 mmHg 62%
    07:00 +10°C° 0 mm 1 mps 653 mmHg 56%
    08:00 +11°C° 0 mm 1 mps 654 mmHg 50%
    09:00 +14°C° 0 mm 1 mps 655 mmHg 43%
    10:00 +16°C° 0 mm 1 mps 656 mmHg 35%
    11:00 +20°C° 0 mm 1 mps 657 mmHg 28%
    12:00 +20°C° 0 mm 2 mps 656 mmHg 28%
    13:00 +21°C° 0 mm 2 mps 656 mmHg 28%
    14:00 +21°C° 0 mm 2 mps 655 mmHg 28%
    15:00 +20°C° 0 mm 2 mps 655 mmHg 33%
    16:00 +19°C° 0 mm 2 mps 655 mmHg 38%
    17:00 +18°C° 0 mm 2 mps 655 mmHg 44%
    18:00 +16°C° 0 mm 2 mps 655 mmHg 54%
    19:00 +13°C° 0 mm 1 mps 655 mmHg 65%
    20:00 +11°C° 0 mm 1 mps 655 mmHg 75%
    21:00 +11°C° 0 mm 1 mps 655 mmHg 77%
    22:00 +10°C° 0 mm 1 mps 655 mmHg 78%
    23:00 +10°C° 0 mm 1 mps 655 mmHg 79%

    1 July, Saturday

    Time Temperature Precipitation Wind Pressure Humidity
    00:00 +10°C° 0 mm 1 mps 655 mmHg 79%
    01:00 +9°C° 0 mm 1 mps 654 mmHg 79%
    02:00 +9°C° 0 mm 1 mps 654 mmHg 79%
    03:00 +9°C° 0 mm 1 mps 654 mmHg 79%
    04:00 +8°C° 0 mm 1 mps 654 mmHg 79%
    05:00 +8°C° 0 mm 1 mps 654 mmHg 79%
    06:00 +9°C° 0 mm 1 mps 654 mmHg 76%
    07:00 +10°C° 0 mm 1 mps 655 mmHg 73%
    08:00 +11°C° 0 mm 1 mps 656 mmHg 71%
    09:00 +13°C° 0 mm 1 mps 656 mmHg 63%
    10:00 +15°C° 0 mm 1 mps 657 mmHg 55%
    11:00 +17°C° 0 mm 2 mps 657 mmHg 47%
    12:00 +18°C° 0 mm 2 mps 657 mmHg 46%
    13:00 +19°C° 0 mm 2 mps 656 mmHg 45%
    14:00 +20°C° 0 mm 3 mps 655 mmHg 44%
    15:00 +19°C° 0 mm 3 mps 655 mmHg 50%
    16:00 +18°C° 0 mm 2 mps 655 mmHg 56%
    17:00 +17°C° 0 mm 2 mps 655 mmHg 61%
    18:00 +15°C° 0 mm 2 mps 655 mmHg 71%
    19:00 +13°C° 0 mm 1 mps 655 mmHg 80%
    20:00 +11°C° 0 mm 1 mps 655 mmHg 89%
    21:00 +11°C° 0 mm 1 mps 655 mmHg 89%
    22:00 +11°C° 0 mm 1 mps 655 mmHg 89%
    23:00 +10°C° 0 mm 1 mps 655 mmHg 89%

    2 July, Sunday

    Time Temperature Precipitation Wind Pressure Humidity
    00:00 +10°C° 0 mm 1 mps 655 mmHg 89%
    01:00 +10°C° 0 mm 1 mps 654 mmHg 88%
    02:00 +10°C° 0 mm 1 mps 654 mmHg 87%
    03:00 +9°C° 0 mm 1 mps 654 mmHg 86%
    04:00 +9°C° 0 mm 1 mps 654 mmHg 85%
    05:00 +9°C° 0 mm 1 mps 653 mmHg 84%
    06:00 +10°C° 0 mm 1 mps 654 mmHg 82%
    07:00 +11°C° 0 mm 1 mps 655 mmHg 79%
    08:00 +12°C° 0 mm 1 mps 656 mmHg 77%
    09:00 +14°C° 0 mm 1 mps 656 mmHg 69%
    10:00 +16°C° 0 mm 2 mps 657 mmHg 62%
    11:00 +18°C° 0 mm 2 mps 658 mmHg 54%
    12:00 +18°C° 0 mm 3 mps 657 mmHg 54%
    13:00 +19°C° 0 mm 3 mps 657 mmHg 55%
    14:00 +19°C° 0 mm 3 mps 656 mmHg 55%
    15:00 +18°C° 0 mm 3 mps 656 mmHg 61%
    16:00 +17°C° 0 mm 3 mps 656 mmHg 67%
    17:00 +16°C° 0 mm 3 mps 656 mmHg 73%
    18:00 +15°C° 0 mm 2 mps 656 mmHg 79%
    19:00 +14°C° 0 mm 2 mps 656 mmHg 85%
    20:00 +12°C° 0 mm 1 mps 656 mmHg 92%
    21:00 +12°C° 0 mm 1 mps 656 mmHg 91%
    22:00 +12°C° 0 mm 1 mps 655 mmHg 91%
    23:00 +11°C° 0 mm 1 mps 655 mmHg 91%

    3 July, Monday

    Time Temperature Precipitation Wind Pressure Humidity
    00:00 +11°C° 0 mm 1 mps 655 mmHg 90%
    01:00 +11°C° 0 mm 1 mps 654 mmHg 89%
    02:00 +11°C° 0 mm 1 mps 654 mmHg 88%
    03:00 +11°C° 0 mm 1 mps 654 mmHg 87%
    04:00 +11°C° 0 mm 1 mps 654 mmHg 86%
    05:00 +11°C° 0 mm 1 mps 653 mmHg 85%
    06:00 +11°C° 0 mm 1 mps 654 mmHg 83%
    07:00 +12°C° 0 mm 2 mps 654 mmHg 80%
    08:00 +13°C° 0 mm 2 mps 655 mmHg 78%
    09:00 +14°C° 0 mm 2 mps 655 mmHg 72%
    10:00 +16°C° 0 mm 3 mps 655 mmHg 66%
    11:00 +18°C° 0 mm 3 mps 655 mmHg 60%
    12:00 +18°C° 0 mm 4 mps 654 mmHg 61%
    13:00 +18°C° 0 mm 4 mps 653 mmHg 62%
    14:00 +18°C° 0 mm 4 mps 652 mmHg 63%
    15:00 +17°C° 0 mm 3 mps 652 mmHg 67%
    16:00 +17°C° 0 mm 3 mps 652 mmHg 72%
    17:00 +16°C° 0 mm 2 mps 652 mmHg 76%
    18:00 +15°C° 0 mm 2 mps 652 mmHg 79%
    19:00 +14°C° 0 mm 2 mps 652 mmHg 81%
    20:00 +14°C° 0 mm 1 mps 652 mmHg 84%
    21:00 +13°C° 0 mm 1 mps 652 mmHg 83%
    22:00 +13°C° 0 mm 2 mps 652 mmHg 82%
    23:00 +13°C° 0 mm 2 mps 652 mmHg 80%
    Show more